FW0765 Weather Reports


Display with metric or nautical units.
time (UTC)temp
F
wind
direction
speed
MPH
gust
MPH
rain 1hr
in
rain 24hr
in
rain mn
in
humidity
%
barometer
mb
20260906224541 94 173 4.0 11.0 0.00 0.00 0.00 44 1008.3
20260906223039 94 158 5.0 15.0 0.00 0.00 0.00 45 1008.5
20260906221551 94 126 4.0 13.0 0.00 0.00 0.00 43 1008.6
20260906220035 94 169 4.0 12.0 0.00 0.00 0.00 44 1008.6
20260906214533 93 140 2.0 9.0 0.00 0.00 0.00 45 1008.7
20260906213032 94 169 5.0 11.0 0.00 0.00 0.00 45 1009.0
20260906211531 94 91 5.0 13.0 0.00 0.00 0.00 44 1009.1
20260906210030 93 134 5.0 12.0 0.00 0.00 0.00 45 1009.4
20260906204527 94 96 6.0 12.0 0.00 0.00 0.00 45 1009.6
20260906203033 94 161 5.0 13.0 0.00 0.00 0.00 45 1009.8
20260906201525 94 80 6.0 19.0 0.00 0.00 0.00 44 1009.8
20260906200123 94 146 6.0 11.0 0.00 0.00 0.00 42 1010.0
20260906194522 94 88 6.0 12.0 0.00 0.00 0.00 43 1010.0
20260906193021 94 138 3.0 11.0 0.00 0.00 0.00 44 1010.2
20260906191519 94 161 7.0 12.0 0.00 0.00 0.00 45 1010.3
20260906190018 93 105 4.0 12.0 0.00 0.00 0.00 48 1010.6
20260906184518 93 48 7.0 10.0 0.00 0.00 0.00 47 1010.6
20260906183038 94 66 7.0 14.0 0.00 0.00 0.00 47 1010.9
20260906181517 92 109 5.0 11.0 0.00 0.00 0.00 50 1011.0
20260906180018 91 39 5.0 11.0 0.00 0.00 0.00 51 1011.3
20260906174511 91 88 5.0 10.0 0.00 0.00 0.00 50 1011.5
20260906173011 92 61 3.0 12.0 0.00 0.00 0.00 51 1011.7
20260906171517 88 97 3.0 8.0 0.00 0.00 0.00 57 1011.8
20260906170008 88 204 1.0 11.0 0.00 0.00 0.00 58 1012.2
20260906164505 88 106 2.0 4.0 0.00 0.00 0.00 57 1012.2
20260906163010 88 28 0.0 7.0 0.00 0.00 0.00 57 1012.1
20260906161504 90 11 1.0 4.0 0.00 0.00 0.00 56 1012.1
20260906154558 88 14 2.0 4.0 0.00 0.00 0.00 59 1012.2
20260906153057 86 326 1.0 4.0 0.00 0.00 0.00 62 1011.9
20260906151551 85 312 1.0 4.0 0.00 0.00 0.00 64 1011.9
20260906150054 84 326 2.0 4.0 0.00 0.00 0.00 66 1011.9
20260906144553 83 222 1.0 3.0 0.00 0.00 0.00 68 1012.0
20260906143042 82 221 1.0 5.0 0.00 0.00 0.00 70 1011.9
20260906141539 80 210 0.0 4.0 0.00 0.00 0.00 74 1011.9
20260906140041 78 180 1.0 4.0 0.00 0.00 0.00 76 1011.7
20260906134539 76 180 1.0 4.0 0.00 0.00 0.00 79 1011.5
20260906133032 74 180 1.0 4.0 0.00 0.00 0.00 82 1011.4
20260906131534 72 188 0.0 2.0 0.00 0.00 0.00 85 1011.5
20260906130030 71 188 1.0 3.0 0.00 0.00 0.00 86 1011.3
20260906124527 70 188 0.0 2.0 0.00 0.00 0.00 85 1011.2
20260906123032 70 188 0.0 1.0 0.00 0.00 0.00 84 1011.3
20260906121536 71 188 0.0 1.0 0.00 0.00 0.00 84 1011.0
20260906120022 71 188 0.0 2.0 0.00 0.00 0.00 84 1010.9
20260906114528 71 188 0.0 0.0 0.00 0.00 0.00 83 1010.7
20260906113037 72 188 1.0 3.0 0.00 0.00 0.00 82 1010.8
20260906111517 72 188 0.0 2.0 0.00 0.00 0.00 81 1010.7
20260906110019 73 188 1.0 2.0 0.00 0.00 0.00 81 1010.3
20260906104525 73 188 1.0 2.0 0.00 0.00 0.00 80 1010.5
20260906103013 73 188 0.0 2.0 0.00 0.00 0.00 80 1010.5
20260906101513 73 188 1.0 3.0 0.00 0.00 0.00 79 1010.5
20260906100017 74 188 0.0 2.0 0.00 0.00 0.00 79 1010.3
20260906094517 73 188 1.0 4.0 0.00 0.00 0.00 80 1010.2
20260906093011 72 180 2.0 4.0 0.00 0.00 0.00 81 1010.1
20260906091524 72 176 0.0 1.0 0.00 0.00 0.00 80 1010.1
20260906090010 72 176 0.0 0.0 0.00 0.00 0.00 80 1010.1
20260906084508 72 176 0.0 2.0 0.00 0.00 0.00 79 1010.1
20260906083012 72 176 0.0 0.0 0.00 0.00 0.00 78 1010.1
20260906081509 73 176 0.0 0.0 0.00 0.00 0.00 78 1010.1
20260906080002 74 176 0.0 0.0 0.00 0.00 0.00 77 1010.2
20260906074614 74 176 0.0 0.0 0.00 0.00 0.00 76 1010.2
20260906073101 74 176 0.0 0.0 0.00 0.00 0.00 76 1010.3
20260906071600 75 176 0.0 0.0 0.00 0.00 0.00 76 1010.4
20260906070056 75 176 0.0 0.0 0.00 0.00 0.00 75 1010.6
20260906064555 75 176 0.0 2.0 0.00 0.00 0.00 74 1010.6
20260906063053 76 176 0.0 0.0 0.00 0.00 0.00 73 1010.7
20260906061555 77 176 0.0 0.0 0.00 0.00 0.00 72 1010.7
20260906060046 77 176 0.0 0.0 0.00 0.00 0.00 70 1010.8
20260906054545 78 176 0.0 2.0 0.00 0.00 0.00 69 1010.8
20260906053041 79 176 0.0 2.0 0.00 0.00 0.00 68 1010.8
20260906051546 80 176 1.0 2.0 0.00 0.00 0.00 67 1010.9
20260906050045 80 176 0.0 2.0 0.00 0.00 0.00 65 1010.9
20260906044538 81 176 1.0 3.0 0.00 0.00 0.00 64 1010.9
20260906043032 82 176 1.0 3.0 0.00 0.00 0.00 63 1010.9
20260906041535 82 186 2.0 5.0 0.00 0.00 0.00 62 1010.8
20260906040033 83 190 2.0 4.0 0.00 0.00 0.00 61 1010.8
20260906034531 84 175 2.0 5.0 0.00 0.00 0.00 60 1010.7
20260906033041 84 181 3.0 5.0 0.00 0.00 0.00 59 1010.5
20260906031532 85 176 3.0 7.0 0.00 0.00 0.00 58 1010.2
20260906030030 85 207 3.0 5.0 0.00 0.00 0.00 57 1009.8
20260906024531 86 173 2.0 6.0 0.00 0.00 0.00 56 1009.4
20260906023028 87 207 3.0 6.0 0.00 0.00 0.00 55 1009.2
20260906021528 88 156 3.0 7.0 0.00 0.00 0.00 54 1008.9
20260906020028 88 167 4.0 8.0 0.00 0.00 0.00 54 1008.7
20260906014528 89 177 3.0 6.0 0.00 0.00 0.00 52 1008.5
20260906013026 90 180 4.0 8.0 0.00 0.00 0.00 51 1008.4
20260906011534 91 165 6.0 12.0 0.00 0.00 0.00 48 1008.1
20260906010025 92 149 3.0 11.0 0.00 0.00 0.00 45 1007.9
20260906004524 93 142 6.0 10.0 0.00 0.00 0.00 44 1008.0
20260906003024 94 128 3.0 11.0 0.00 0.00 0.00 43 1008.0
20260906001523 94 178 2.0 11.0 0.00 0.00 0.00 42 1008.0
20260906000023 95 130 5.0 12.0 0.00 0.00 0.00 41 1007.9
20260905234522 95 84 3.0 8.0 0.00 0.00 0.00 41 1007.8
20260905233021 95 81 3.0 10.0 0.00 0.00 0.00 42 1007.7
20260905231520 96 128 5.0 11.0 0.00 0.00 0.00 41 1007.5
20260905230121 96 69 6.0 11.0 0.00 0.00 0.00 42 1007.5